sat.trackr.live / text

‹ back to catalog

STARLINK-35475

NORAD 65865 · 2025-223M

PAYLOAD ACTIVE UNKNOWN

§ Identity

Operator
Country
US
Launch date
2025-10-03
Launch site
AFWTR
Launch vehicle
Mass (kg)
RCS (m²)

Purposes: comms

External: N2YO · Heavens-Above · Gunter

§ Orbital elements

Epoch: 2026-05-25T03:08:54.931776Z

Period
94.10 min
Inclination
53.1595°
Eccentricity
0.0001187
Mean motion
15.30207033 rev/d
Perigee alt
474.4 km
Apogee alt
476.0 km
Semi-major
6,853.3 km
B*
6.7823e-4
RAAN
298.7946°
Arg perigee
90.3661°
Mean anomaly
269.7476°
Rev number
3,591

§ Raw data

STARLINK-354751 65865U 25223M   26145.13119134  .00019786  00000+0  67823-3 0  99942 65865  53.1595 298.7946 0001187  90.3661 269.7476 15.30207033 35910

JSON: /api/v1/satellites/65865 · /tle

For live sub-satellite position, see the globe view (requires WebGL).

§ Visibility from observer

Set your observer location to see the next 7 days of passes ≥ 10°. The values pass through the URL so the page stays shareable.

No JS? Fill the form by hand. The geolocation button needs JavaScript.